Tracking 19832 objects as of 25-Aug-2019
HD Live streaming from Space Station
objects crossing your sky now

H-2A R/B

Track H-2A R/B now!
10-day predictions


NORAD ID: 43067
Int'l Code: 2017-082C
Perigee: 469.2 km
Apogee: 638.1 km
Inclination: 98.3 °
Period: 95.6 minutes
Semi major axis: 6924 km
RCS: Unknown
Launch date: December 23, 2017
Source: Japan (JPN)
Launch site: TANEGASHIMA SPACE CENTER (TNSTA)

Note: This is a ROCKET BODY
aabbcc
Your satellite tracking list
Your tracking list is empty




NASA's NSSDC Master Catalog

Two Line Element Set (TLE):
1 43067U 17082C   19236.91994756 +.00000326 +00000-0 +23746-4 0  9996
2 43067 098.3283 003.5710 0121992 234.6623 124.3151 15.06627169091797
Source of the keplerian elements: AFSPC